Location: Unspecified
(47.2333°N, 39.7000°E)
Time: 21:15:52
(UTC+00:00)

ISS - Visible Passes

Search period start: 05 July 2022 00:00
Search period end: 15 July 2022 00:00
Orbit: 414 x 420 km, 51.6° (Epoch: 05 July)

Date Brightness Start Highest point End Pass type
(mag) Time Alt. Az. Time Alt. Az. Time Alt. Az.
05 Jul -1.6 21:28:49 17° E 21:28:49 17° E 21:29:53 10° E visible
05 Jul -3.4 23:01:42 24° W 23:03:31 62° NNW 23:06:52 10° ENE visible
06 Jul -2.2 00:37:28 10° WNW 00:40:38 37° N 00:43:48 10° ENE visible
06 Jul -3.8 22:14:51 67° W 22:15:15 84° NNW 22:18:37 10° ENE visible
06 Jul -2.3 23:49:06 10° WNW 23:52:16 38° N 23:55:28 10° ENE visible
07 Jul -3.0 21:27:56 43° E 21:27:56 43° E 21:30:21 10° ENE visible
07 Jul -2.5 23:00:48 11° W 23:03:56 42° N 23:07:09 10° ENE visible
08 Jul -2.4 00:37:52 10° WNW 00:41:07 42° N 00:44:20 10° E visible
08 Jul -1.8 20:40:52 19° E 20:40:52 19° E 20:42:02 10° ENE visible
08 Jul -2.9 22:13:44 23° W 22:15:34 49° NNW 22:18:52 10° ENE visible
08 Jul -2.2 23:49:34 10° WNW 23:52:45 38° N 23:55:56 10° ENE visible
09 Jul -3.4 21:26:27 45° W 21:27:14 64° NNW 21:30:35 10° ENE visible
09 Jul -2.2 23:01:11 10° WNW 23:04:21 37° N 23:07:31 10° ENE visible
10 Jul -3.2 00:38:06 10° WNW 00:41:28 63° NNE 00:44:49 10° ESE visible
10 Jul -3.9 20:38:41 75° WSW 20:38:56 88° NNW 20:42:18 10° ENE visible
10 Jul -2.3 22:12:46 10° WNW 22:15:57 38° N 22:19:08 10° ENE visible
10 Jul -2.7 23:49:50 10° WNW 23:53:07 49° NNE 23:56:24 10° E visible
11 Jul -1.5 18:15:46 10° ESE 18:15:46 10° ESE 18:11:57 - S visible
11 Jul -3.9 19:47:21 10° SW 19:50:39 64° SSE 19:53:59 10° ENE visible
11 Jul -2.5 21:24:19 10° W 21:27:33 42° N 21:30:47 10° ENE visible
11 Jul -2.4 23:01:31 10° WNW 23:04:43 41° N 23:07:57 10° E visible
12 Jul -3.8 00:38:17 10° WNW 00:41:38 68° SSW 00:44:59 10° SE visible
12 Jul -3.4 18:59:15 10° SW 19:02:25 41° SE 19:05:36 10° ENE visible
12 Jul -2.9 20:35:52 10° W 20:39:09 51° NNW 20:42:27 10° ENE visible
12 Jul -2.2 22:13:08 10° WNW 22:16:18 38° N 22:19:29 10° ENE visible
12 Jul -3.7 23:49:58 10° WNW 23:53:20 83° NNE 23:56:43 10° ESE visible
13 Jul -2.8 18:11:22 10° SSW 18:14:13 26° SE 18:17:05 10° E visible
13 Jul -3.4 19:47:26 10° WSW 19:50:46 66° NNW 19:54:07 10° ENE visible
13 Jul -2.2 21:24:43 10° WNW 21:27:52 37° N 21:31:02 10° ENE visible
13 Jul -3.3 23:01:39 10° WNW 23:04:59 61° NNE 23:08:20 10° E visible
14 Jul -2.9 00:38:36 10° W 00:41:36 30° SW 00:44:34 10° SSE visible
14 Jul -3.8 18:59:04 10° WSW 19:02:25 89° SSE 19:05:48 10° ENE visible
14 Jul -2.3 20:36:15 10° WNW 20:39:25 38° N 20:42:36 10° ENE visible
14 Jul -2.8 22:13:19 10° WNW 22:16:35 48° NNE 22:19:52 10° E visible
14 Jul -3.6 23:50:07 10° WNW 23:53:22 46° SSW 23:56:36 10° SE visible
